owner,sensor,date,latitude,longitude,sea_surface_height_above_sea_level,qcFlag 
COMPS,ioos:station:USF.COMPS:ANM:1,2011-06-01T00:00:00Z,27.5400,-82.7400,-0.55,1111122 
COMPS,ioos:station:USF.COMPS:ANM:1,2011-06-01T00:06:00Z,27.5400,-82.7400,-0.542,1111122 
COMPS,ioos:station:USF.COMPS:ANM:1,2011-06-01T00:12:00Z,27.5400,-82.7400,-0.533,1111122 
COMPS,ioos:station:USF.COMPS:ANM:1,2011-06-01T00:18:00Z,27.5400,-82.7400,-0.526,1111122 
COMPS,ioos:station:USF.COMPS:ANM:1,2011-06-01T00:24:00Z,27.5400,-82.7400,-0.505,1111122 
COMPS,ioos:station:USF.COMPS:ANM:1,2011-06-01T00:30:00Z,27.5400,-82.7400,-0.487,1111122 
COMPS,ioos:station:USF.COMPS:ANM:1,2011-06-01T00:36:00Z,27.5400,-82.7400,-0.48,1111122 
COMPS,ioos:station:USF.COMPS:ANM:1,2011-06-01T00:42:00Z,27.5400,-82.7400,-0.475,1111122 
COMPS,ioos:station:USF.COMPS:ANM:1,2011-06-01T00:48:00Z,27.5400,-82.7400,-0.479,1111122 
COMPS,ioos:station:USF.COMPS:ANM:1,2011-06-01T00:54:00Z,27.5400,-82.7400,-0.459,1111122 
COMPS,ioos:station:USF.COMPS:ANM:1,2011-06-01T01:00:00Z,27.5400,-82.7400,-0.44,1111122 
COMPS,ioos:station:USF.COMPS:ANM:1,2011-06-01T01:06:00Z,27.5400,-82.7400,-0.437,1111122 
COMPS,ioos:station:USF.COMPS:ANM:1,2011-06-01T01:12:00Z,27.5400,-82.7400,-0.425,1111122 
COMPS,ioos:station:USF.COMPS:ANM:1,2011-06-01T01:18:00Z,27.5400,-82.7400,-0.408,1111122 
COMPS,ioos:station:USF.COMPS:ANM:1,2011-06-01T01:24:00Z,27.5400,-82.7400,-0.41,1111122 
COMPS,ioos:station:USF.COMPS:ANM:1,2011-06-01T01:30:00Z,27.5400,-82.7400,-0.408,1111122 
COMPS,ioos:station:USF.COMPS:ANM:1,2011-06-01T01:36:00Z,27.5400,-82.7400,-0.409,1111122 
COMPS,ioos:station:USF.COMPS:ANM:1,2011-06-01T01:42:00Z,27.5400,-82.7400,-0.404,1111122 
COMPS,ioos:station:USF.COMPS:ANM:1,2011-06-01T01:48:00Z,27.5400,-82.7400,-0.392,1111122 
COMPS,ioos:station:USF.COMPS:ANM:1,2011-06-01T01:54:00Z,27.5400,-82.7400,-0.38,1111122 
COMPS,ioos:station:USF.COMPS:ANM:1,2011-06-01T02:00:00Z,27.5400,-82.7400,-0.36,1111122 
COMPS,ioos:station:USF.COMPS:ANM:1,2011-06-01T02:06:00Z,27.5400,-82.7400,-0.358,1111122 
COMPS,ioos:station:USF.COMPS:ANM:1,2011-06-01T02:12:00Z,27.5400,-82.7400,-0.353,1111122 
COMPS,ioos:station:USF.COMPS:ANM:1,2011-06-01T02:18:00Z,27.5400,-82.7400,-0.349,1111122 
COMPS,ioos:station:USF.COMPS:ANM:1,2011-06-01T02:24:00Z,27.5400,-82.7400,-0.342,1111122 
COMPS,ioos:station:USF.COMPS:ANM:1,2011-06-01T02:30:00Z,27.5400,-82.7400,-0.324,1111122 
COMPS,ioos:station:USF.COMPS:ANM:1,2011-06-01T02:36:00Z,27.5400,-82.7400,-0.312,1111122 
COMPS,ioos:station:USF.COMPS:ANM:1,2011-06-01T02:42:00Z,27.5400,-82.7400,-0.308,1111122 
COMPS,ioos:station:USF.COMPS:ANM:1,2011-06-01T02:48:00Z,27.5400,-82.7400,-0.304,1111122 
COMPS,ioos:station:USF.COMPS:ANM:1,2011-06-01T02:54:00Z,27.5400,-82.7400,-0.297,1111122 
COMPS,ioos:station:USF.COMPS:ANM:1,2011-06-01T03:00:00Z,27.5400,-82.7400,-0.296,1111122 
COMPS,ioos:station:USF.COMPS:ANM:1,2011-06-01T03:06:00Z,27.5400,-82.7400,-0.293,1111122 
COMPS,ioos:station:USF.COMPS:ANM:1,2011-06-01T03:12:00Z,27.5400,-82.7400,-0.29,1111122 
COMPS,ioos:station:USF.COMPS:ANM:1,2011-06-01T03:18:00Z,27.5400,-82.7400,-0.275,1111122 
COMPS,ioos:station:USF.COMPS:ANM:1,2011-06-01T03:24:00Z,27.5400,-82.7400,-0.263,1111122 
COMPS,ioos:station:USF.COMPS:ANM:1,2011-06-01T03:30:00Z,27.5400,-82.7400,-0.256,1111122 
COMPS,ioos:station:USF.COMPS:ANM:1,2011-06-01T03:36:00Z,27.5400,-82.7400,-0.246,1111122 
COMPS,ioos:station:USF.COMPS:ANM:1,2011-06-01T03:42:00Z,27.5400,-82.7400,-0.24,1111122 
COMPS,ioos:station:USF.COMPS:ANM:1,2011-06-01T03:48:00Z,27.5400,-82.7400,-0.233,1111122 
COMPS,ioos:station:USF.COMPS:ANM:1,2011-06-01T03:54:00Z,27.5400,-82.7400,-0.229,1111122 
COMPS,ioos:station:USF.COMPS:ANM:1,2011-06-01T04:00:00Z,27.5400,-82.7400,-0.233,1111122 
COMPS,ioos:station:USF.COMPS:ANM:1,2011-06-01T04:06:00Z,27.5400,-82.7400,-0.222,1111122 
COMPS,ioos:station:USF.COMPS:ANM:1,2011-06-01T04:12:00Z,27.5400,-82.7400,-0.216,1111122 
COMPS,ioos:station:USF.COMPS:ANM:1,2011-06-01T04:18:00Z,27.5400,-82.7400,-0.207,1111122 
COMPS,ioos:station:USF.COMPS:ANM:1,2011-06-01T04:24:00Z,27.5400,-82.7400,-0.203,1111122 
COMPS,ioos:station:USF.COMPS:ANM:1,2011-06-01T04:30:00Z,27.5400,-82.7400,-0.196,1111122 
COMPS,ioos:station:USF.COMPS:ANM:1,2011-06-01T04:36:00Z,27.5400,-82.7400,-0.188,1111122 
COMPS,ioos:station:USF.COMPS:ANM:1,2011-06-01T04:42:00Z,27.5400,-82.7400,-0.195,1111122 
COMPS,ioos:station:USF.COMPS:ANM:1,2011-06-01T04:48:00Z,27.5400,-82.7400,-0.192,1111122 
COMPS,ioos:station:USF.COMPS:ANM:1,2011-06-01T04:54:00Z,27.5400,-82.7400,-0.184,1111122 
COMPS,ioos:station:USF.COMPS:ANM:1,2011-06-01T05:00:00Z,27.5400,-82.7400,-0.187,1111122 
COMPS,ioos:station:USF.COMPS:ANM:1,2011-06-01T05:06:00Z,27.5400,-82.7400,-0.176,1111122 
COMPS,ioos:station:USF.COMPS:ANM:1,2011-06-01T05:12:00Z,27.5400,-82.7400,-0.172,1111122 
COMPS,ioos:station:USF.COMPS:ANM:1,2011-06-01T05:18:00Z,27.5400,-82.7400,-0.177,1111122 
COMPS,ioos:station:USF.COMPS:ANM:1,2011-06-01T05:24:00Z,27.5400,-82.7400,-0.173,1111122 
COMPS,ioos:station:USF.COMPS:ANM:1,2011-06-01T05:30:00Z,27.5400,-82.7400,-0.172,1111122 
COMPS,ioos:station:USF.COMPS:ANM:1,2011-06-01T05:36:00Z,27.5400,-82.7400,-0.183,1111122 
COMPS,ioos:station:USF.COMPS:ANM:1,2011-06-01T05:42:00Z,27.5400,-82.7400,-0.19,1111122 
COMPS,ioos:station:USF.COMPS:ANM:1,2011-06-01T05:48:00Z,27.5400,-82.7400,-0.182,1111122 
COMPS,ioos:station:USF.COMPS:ANM:1,2011-06-01T05:54:00Z,27.5400,-82.7400,-0.178,1111122 
COMPS,ioos:station:USF.COMPS:ANM:1,2011-06-01T06:00:00Z,27.5400,-82.7400,-0.174,1111122 
COMPS,ioos:station:USF.COMPS:ANM:1,2011-06-01T06:06:00Z,27.5400,-82.7400,-0.17,1111122 
COMPS,ioos:station:USF.COMPS:ANM:1,2011-06-01T06:12:00Z,27.5400,-82.7400,-0.176,1111122 
COMPS,ioos:station:USF.COMPS:ANM:1,2011-06-01T06:18:00Z,27.5400,-82.7400,-0.181,1111122 
COMPS,ioos:station:USF.COMPS:ANM:1,2011-06-01T06:24:00Z,27.5400,-82.7400,-0.203,1111122 
COMPS,ioos:station:USF.COMPS:ANM:1,2011-06-01T06:30:00Z,27.5400,-82.7400,-0.194,1111122 
COMPS,ioos:station:USF.COMPS:ANM:1,2011-06-01T06:36:00Z,27.5400,-82.7400,-0.197,1111122 
COMPS,ioos:station:USF.COMPS:ANM:1,2011-06-01T06:42:00Z,27.5400,-82.7400,-0.193,1111122 
COMPS,ioos:station:USF.COMPS:ANM:1,2011-06-01T06:48:00Z,27.5400,-82.7400,-0.178,1111122 
COMPS,ioos:station:USF.COMPS:ANM:1,2011-06-01T06:54:00Z,27.5400,-82.7400,-0.188,1111122 
COMPS,ioos:station:USF.COMPS:ANM:1,2011-06-01T07:00:00Z,27.5400,-82.7400,-0.206,1111122 
COMPS,ioos:station:USF.COMPS:ANM:1,2011-06-01T07:06:00Z,27.5400,-82.7400,-0.204,1111122 
COMPS,ioos:station:USF.COMPS:ANM:1,2011-06-01T07:12:00Z,27.5400,-82.7400,-0.213,1111122 
COMPS,ioos:station:USF.COMPS:ANM:1,2011-06-01T07:18:00Z,27.5400,-82.7400,-0.215,1111122 
COMPS,ioos:station:USF.COMPS:ANM:1,2011-06-01T07:24:00Z,27.5400,-82.7400,-0.216,1111122 
COMPS,ioos:station:USF.COMPS:ANM:1,2011-06-01T07:30:00Z,27.5400,-82.7400,-0.209,1111122 
COMPS,ioos:station:USF.COMPS:ANM:1,2011-06-01T07:36:00Z,27.5400,-82.7400,-0.245,1111122 
COMPS,ioos:station:USF.COMPS:ANM:1,2011-06-01T07:42:00Z,27.5400,-82.7400,-0.235,1111122 
COMPS,ioos:station:USF.COMPS:ANM:1,2011-06-01T07:48:00Z,27.5400,-82.7400,-0.235,1111122 
COMPS,ioos:station:USF.COMPS:ANM:1,2011-06-01T07:54:00Z,27.5400,-82.7400,-0.232,1111122 
COMPS,ioos:station:USF.COMPS:ANM:1,2011-06-01T08:00:00Z,27.5400,-82.7400,-0.226,1111122 
COMPS,ioos:station:USF.COMPS:ANM:1,2011-06-01T08:06:00Z,27.5400,-82.7400,-0.222,1111122 
COMPS,ioos:station:USF.COMPS:ANM:1,2011-06-01T08:12:00Z,27.5400,-82.7400,-0.233,1111122 
COMPS,ioos:station:USF.COMPS:ANM:1,2011-06-01T08:18:00Z,27.5400,-82.7400,-0.24,1111122 
COMPS,ioos:station:USF.COMPS:ANM:1,2011-06-01T08:24:00Z,27.5400,-82.7400,-0.235,1111122 
COMPS,ioos:station:USF.COMPS:ANM:1,2011-06-01T08:30:00Z,27.5400,-82.7400,-0.231,1111122 
COMPS,ioos:station:USF.COMPS:ANM:1,2011-06-01T08:36:00Z,27.5400,-82.7400,-0.223,1111122 
COMPS,ioos:station:USF.COMPS:ANM:1,2011-06-01T08:42:00Z,27.5400,-82.7400,-0.237,1111122 
COMPS,ioos:station:USF.COMPS:ANM:1,2011-06-01T08:48:00Z,27.5400,-82.7400,-0.235,1111122 
COMPS,ioos:station:USF.COMPS:ANM:1,2011-06-01T08:54:00Z,27.5400,-82.7400,-0.229,1111122 
COMPS,ioos:station:USF.COMPS:ANM:1,2011-06-01T09:00:00Z,27.5400,-82.7400,-0.226,1111122 
COMPS,ioos:station:USF.COMPS:ANM:1,2011-06-01T09:06:00Z,27.5400,-82.7400,-0.216,1111122 
COMPS,ioos:station:USF.COMPS:ANM:1,2011-06-01T09:12:00Z,27.5400,-82.7400,-0.226,1111122 
COMPS,ioos:station:USF.COMPS:ANM:1,2011-06-01T09:18:00Z,27.5400,-82.7400,-0.236,1111122 
COMPS,ioos:station:USF.COMPS:ANM:1,2011-06-01T09:24:00Z,27.5400,-82.7400,-0.22,1111122 
COMPS,ioos:station:USF.COMPS:ANM:1,2011-06-01T09:30:00Z,27.5400,-82.7400,-0.214,1111122 
COMPS,ioos:station:USF.COMPS:ANM:1,2011-06-01T09:36:00Z,27.5400,-82.7400,-0.21,1111122 
COMPS,ioos:station:USF.COMPS:ANM:1,2011-06-01T09:42:00Z,27.5400,-82.7400,-0.204,1111122 
COMPS,ioos:station:USF.COMPS:ANM:1,2011-06-01T09:48:00Z,27.5400,-82.7400,-0.193,1111122 
COMPS,ioos:station:USF.COMPS:ANM:1,2011-06-01T09:54:00Z,27.5400,-82.7400,-0.192,1111122 
COMPS,ioos:station:USF.COMPS:ANM:1,2011-06-01T10:00:00Z,27.5400,-82.7400,-0.204,1111122 
COMPS,ioos:station:USF.COMPS:ANM:1,2011-06-01T10:06:00Z,27.5400,-82.7400,-0.196,1111122 
COMPS,ioos:station:USF.COMPS:ANM:1,2011-06-01T10:12:00Z,27.5400,-82.7400,-0.182,1111122 
COMPS,ioos:station:USF.COMPS:ANM:1,2011-06-01T10:18:00Z,27.5400,-82.7400,-0.167,1111122 
COMPS,ioos:station:USF.COMPS:ANM:1,2011-06-01T10:24:00Z,27.5400,-82.7400,-0.156,1111122 
COMPS,ioos:station:USF.COMPS:ANM:1,2011-06-01T10:30:00Z,27.5400,-82.7400,-0.149,1111122 
COMPS,ioos:station:USF.COMPS:ANM:1,2011-06-01T10:36:00Z,27.5400,-82.7400,-0.137,1111122 
COMPS,ioos:station:USF.COMPS:ANM:1,2011-06-01T10:42:00Z,27.5400,-82.7400,-0.133,1111122 
COMPS,ioos:station:USF.COMPS:ANM:1,2011-06-01T10:48:00Z,27.5400,-82.7400,-0.117,1111122 
COMPS,ioos:station:USF.COMPS:ANM:1,2011-06-01T10:54:00Z,27.5400,-82.7400,-0.114,1111122 
COMPS,ioos:station:USF.COMPS:ANM:1,2011-06-01T11:00:00Z,27.5400,-82.7400,-0.101,1111122 
COMPS,ioos:station:USF.COMPS:ANM:1,2011-06-01T11:06:00Z,27.5400,-82.7400,-0.084,1111122 
COMPS,ioos:station:USF.COMPS:ANM:1,2011-06-01T11:12:00Z,27.5400,-82.7400,-0.078,1111122 
COMPS,ioos:station:USF.COMPS:ANM:1,2011-06-01T11:18:00Z,27.5400,-82.7400,-0.071,1111122 
COMPS,ioos:station:USF.COMPS:ANM:1,2011-06-01T11:24:00Z,27.5400,-82.7400,-0.059,1111122 
COMPS,ioos:station:USF.COMPS:ANM:1,2011-06-01T11:30:00Z,27.5400,-82.7400,-0.052,1111122 
COMPS,ioos:station:USF.COMPS:ANM:1,2011-06-01T11:36:00Z,27.5400,-82.7400,-0.03,1111122 
COMPS,ioos:station:USF.COMPS:ANM:1,2011-06-01T11:42:00Z,27.5400,-82.7400,-0.026,1111122 
COMPS,ioos:station:USF.COMPS:ANM:1,2011-06-01T11:48:00Z,27.5400,-82.7400,-0.01,1111122 
COMPS,ioos:station:USF.COMPS:ANM:1,2011-06-01T11:54:00Z,27.5400,-82.7400,0.02,1111122 
COMPS,ioos:station:USF.COMPS:ANM:1,2011-06-01T12:00:00Z,27.5400,-82.7400,0.011,1111122 
COMPS,ioos:station:USF.COMPS:ANM:1,2011-06-01T12:06:00Z,27.5400,-82.7400,0.012,1111122 
COMPS,ioos:station:USF.COMPS:ANM:1,2011-06-01T12:12:00Z,27.5400,-82.7400,0.028,1111122 
COMPS,ioos:station:USF.COMPS:ANM:1,2011-06-01T12:18:00Z,27.5400,-82.7400,0.044,1111122 
COMPS,ioos:station:USF.COMPS:ANM:1,2011-06-01T12:24:00Z,27.5400,-82.7400,0.056,1111122 
COMPS,ioos:station:USF.COMPS:ANM:1,2011-06-01T12:30:00Z,27.5400,-82.7400,0.078,1111122 
COMPS,ioos:station:USF.COMPS:ANM:1,2011-06-01T12:36:00Z,27.5400,-82.7400,0.093,1111122 
COMPS,ioos:station:USF.COMPS:ANM:1,2011-06-01T12:42:00Z,27.5400,-82.7400,0.105,1111122 
COMPS,ioos:station:USF.COMPS:ANM:1,2011-06-01T12:48:00Z,27.5400,-82.7400,0.1,1111122 
COMPS,ioos:station:USF.COMPS:ANM:1,2011-06-01T12:54:00Z,27.5400,-82.7400,0.108,1111122 
COMPS,ioos:station:USF.COMPS:ANM:1,2011-06-01T13:00:00Z,27.5400,-82.7400,0.125,1111122 
COMPS,ioos:station:USF.COMPS:ANM:1,2011-06-01T13:06:00Z,27.5400,-82.7400,0.147,1111122 
COMPS,ioos:station:USF.COMPS:ANM:1,2011-06-01T13:12:00Z,27.5400,-82.7400,0.156,1111122 
COMPS,ioos:station:USF.COMPS:ANM:1,2011-06-01T13:18:00Z,27.5400,-82.7400,0.153,1111122 
COMPS,ioos:station:USF.COMPS:ANM:1,2011-06-01T13:24:00Z,27.5400,-82.7400,0.171,1111122 
COMPS,ioos:station:USF.COMPS:ANM:1,2011-06-01T13:30:00Z,27.5400,-82.7400,0.181,1111122 
COMPS,ioos:station:USF.COMPS:ANM:1,2011-06-01T13:36:00Z,27.5400,-82.7400,0.192,1111122 
COMPS,ioos:station:USF.COMPS:ANM:1,2011-06-01T13:42:00Z,27.5400,-82.7400,0.196,1111122 
COMPS,ioos:station:USF.COMPS:ANM:1,2011-06-01T13:48:00Z,27.5400,-82.7400,0.203,1111122 
COMPS,ioos:station:USF.COMPS:ANM:1,2011-06-01T13:54:00Z,27.5400,-82.7400,0.213,1111122 
COMPS,ioos:station:USF.COMPS:ANM:1,2011-06-01T15:00:00Z,27.5400,-82.7400,0.265,1111122 
COMPS,ioos:station:USF.COMPS:ANM:1,2011-06-01T15:06:00Z,27.5400,-82.7400,0.266,1111122 
COMPS,ioos:station:USF.COMPS:ANM:1,2011-06-01T15:12:00Z,27.5400,-82.7400,0.269,1111122 
COMPS,ioos:station:USF.COMPS:ANM:1,2011-06-01T15:18:00Z,27.5400,-82.7400,0.272,1111122 
COMPS,ioos:station:USF.COMPS:ANM:1,2011-06-01T15:24:00Z,27.5400,-82.7400,0.273,1111122 
COMPS,ioos:station:USF.COMPS:ANM:1,2011-06-01T15:30:00Z,27.5400,-82.7400,0.28,1111122 
COMPS,ioos:station:USF.COMPS:ANM:1,2011-06-01T15:36:00Z,27.5400,-82.7400,0.277,1111122 
COMPS,ioos:station:USF.COMPS:ANM:1,2011-06-01T15:42:00Z,27.5400,-82.7400,0.272,1111122 
COMPS,ioos:station:USF.COMPS:ANM:1,2011-06-01T15:48:00Z,27.5400,-82.7400,0.274,1111122 
COMPS,ioos:station:USF.COMPS:ANM:1,2011-06-01T15:54:00Z,27.5400,-82.7400,0.275,1111122 
COMPS,ioos:station:USF.COMPS:ANM:1,2011-06-01T16:00:00Z,27.5400,-82.7400,0.27,1111122 
COMPS,ioos:station:USF.COMPS:ANM:1,2011-06-01T16:06:00Z,27.5400,-82.7400,0.274,1111122 
COMPS,ioos:station:USF.COMPS:ANM:1,2011-06-01T16:12:00Z,27.5400,-82.7400,0.263,1111122 
COMPS,ioos:station:USF.COMPS:ANM:1,2011-06-01T16:18:00Z,27.5400,-82.7400,0.246,1111122 
COMPS,ioos:station:USF.COMPS:ANM:1,2011-06-01T16:24:00Z,27.5400,-82.7400,0.253,1111122 
COMPS,ioos:station:USF.COMPS:ANM:1,2011-06-01T16:30:00Z,27.5400,-82.7400,0.25,1111122 
COMPS,ioos:station:USF.COMPS:ANM:1,2011-06-01T16:36:00Z,27.5400,-82.7400,0.233,1111122 
COMPS,ioos:station:USF.COMPS:ANM:1,2011-06-01T16:42:00Z,27.5400,-82.7400,0.224,1111122 
COMPS,ioos:station:USF.COMPS:ANM:1,2011-06-01T16:48:00Z,27.5400,-82.7400,0.221,1111122 
COMPS,ioos:station:USF.COMPS:ANM:1,2011-06-01T16:54:00Z,27.5400,-82.7400,0.219,1111122 
COMPS,ioos:station:USF.COMPS:ANM:1,2011-06-01T17:00:00Z,27.5400,-82.7400,0.208,1111122 
COMPS,ioos:station:USF.COMPS:ANM:1,2011-06-01T17:06:00Z,27.5400,-82.7400,0.199,1111122 
COMPS,ioos:station:USF.COMPS:ANM:1,2011-06-01T17:12:00Z,27.5400,-82.7400,0.182,1111122 
COMPS,ioos:station:USF.COMPS:ANM:1,2011-06-01T17:18:00Z,27.5400,-82.7400,0.169,1111122 
COMPS,ioos:station:USF.COMPS:ANM:1,2011-06-01T17:24:00Z,27.5400,-82.7400,0.162,1111122 
COMPS,ioos:station:USF.COMPS:ANM:1,2011-06-01T17:30:00Z,27.5400,-82.7400,0.147,1111122 
COMPS,ioos:station:USF.COMPS:ANM:1,2011-06-01T17:36:00Z,27.5400,-82.7400,0.13,1111122 
COMPS,ioos:station:USF.COMPS:ANM:1,2011-06-01T17:42:00Z,27.5400,-82.7400,0.124,1111122 
COMPS,ioos:station:USF.COMPS:ANM:1,2011-06-01T17:48:00Z,27.5400,-82.7400,0.13,1111122 
COMPS,ioos:station:USF.COMPS:ANM:1,2011-06-01T17:54:00Z,27.5400,-82.7400,0.147,1111122 
COMPS,ioos:station:USF.COMPS:ANM:1,2011-06-01T18:00:00Z,27.5400,-82.7400,0.129,1111122 
COMPS,ioos:station:USF.COMPS:ANM:1,2011-06-01T18:06:00Z,27.5400,-82.7400,0.168,1111122 
COMPS,ioos:station:USF.COMPS:ANM:1,2011-06-01T18:12:00Z,27.5400,-82.7400,0.133,1111122 
COMPS,ioos:station:USF.COMPS:ANM:1,2011-06-01T18:18:00Z,27.5400,-82.7400,0.066,1111122 
COMPS,ioos:station:USF.COMPS:ANM:1,2011-06-01T18:24:00Z,27.5400,-82.7400,0.026,1111122 
COMPS,ioos:station:USF.COMPS:ANM:1,2011-06-01T18:30:00Z,27.5400,-82.7400,0.009,1111122 
COMPS,ioos:station:USF.COMPS:ANM:1,2011-06-01T18:36:00Z,27.5400,-82.7400,-0.028,1111122 
COMPS,ioos:station:USF.COMPS:ANM:1,2011-06-01T18:42:00Z,27.5400,-82.7400,-0.062,1111122 
COMPS,ioos:station:USF.COMPS:ANM:1,2011-06-01T18:48:00Z,27.5400,-82.7400,-0.101,1111122 
COMPS,ioos:station:USF.COMPS:ANM:1,2011-06-01T18:54:00Z,27.5400,-82.7400,-0.139,1111122 
COMPS,ioos:station:USF.COMPS:ANM:1,2011-06-01T19:00:00Z,27.5400,-82.7400,-0.145,1111122 
COMPS,ioos:station:USF.COMPS:ANM:1,2011-06-01T19:06:00Z,27.5400,-82.7400,-0.187,1111122 
COMPS,ioos:station:USF.COMPS:ANM:1,2011-06-01T19:12:00Z,27.5400,-82.7400,-0.206,1111122 
COMPS,ioos:station:USF.COMPS:ANM:1,2011-06-01T19:18:00Z,27.5400,-82.7400,-0.229,1111122 
COMPS,ioos:station:USF.COMPS:ANM:1,2011-06-01T19:24:00Z,27.5400,-82.7400,-0.245,1111122 
COMPS,ioos:station:USF.COMPS:ANM:1,2011-06-01T19:30:00Z,27.5400,-82.7400,-0.263,1111122 
COMPS,ioos:station:USF.COMPS:ANM:1,2011-06-01T19:36:00Z,27.5400,-82.7400,-0.268,1111122 
COMPS,ioos:station:USF.COMPS:ANM:1,2011-06-01T19:42:00Z,27.5400,-82.7400,-0.271,1111122 
COMPS,ioos:station:USF.COMPS:ANM:1,2011-06-01T19:48:00Z,27.5400,-82.7400,-0.283,1111122 
COMPS,ioos:station:USF.COMPS:ANM:1,2011-06-01T19:54:00Z,27.5400,-82.7400,-0.307,1111122 
COMPS,ioos:station:USF.COMPS:ANM:1,2011-06-01T20:00:00Z,27.5400,-82.7400,-0.325,1111122 
COMPS,ioos:station:USF.COMPS:ANM:1,2011-06-01T20:06:00Z,27.5400,-82.7400,-0.332,1111122 
COMPS,ioos:station:USF.COMPS:ANM:1,2011-06-01T20:12:00Z,27.5400,-82.7400,-0.34,1111122 
COMPS,ioos:station:USF.COMPS:ANM:1,2011-06-01T20:18:00Z,27.5400,-82.7400,-0.363,1111122 
COMPS,ioos:station:USF.COMPS:ANM:1,2011-06-01T20:24:00Z,27.5400,-82.7400,-0.385,1111122 
COMPS,ioos:station:USF.COMPS:ANM:1,2011-06-01T20:30:00Z,27.5400,-82.7400,-0.404,1111122 
COMPS,ioos:station:USF.COMPS:ANM:1,2011-06-01T20:36:00Z,27.5400,-82.7400,-0.413,1111122 
COMPS,ioos:station:USF.COMPS:ANM:1,2011-06-01T20:42:00Z,27.5400,-82.7400,-0.42,1111122 
COMPS,ioos:station:USF.COMPS:ANM:1,2011-06-01T20:48:00Z,27.5400,-82.7400,-0.436,1111122 
COMPS,ioos:station:USF.COMPS:ANM:1,2011-06-01T20:54:00Z,27.5400,-82.7400,-0.454,1111122 
COMPS,ioos:station:USF.COMPS:ANM:1,2011-06-01T21:00:00Z,27.5400,-82.7400,-0.464,1111122 
COMPS,ioos:station:USF.COMPS:ANM:1,2011-06-01T21:06:00Z,27.5400,-82.7400,-0.481,1111122 
COMPS,ioos:station:USF.COMPS:ANM:1,2011-06-01T21:12:00Z,27.5400,-82.7400,-0.497,1111122 
COMPS,ioos:station:USF.COMPS:ANM:1,2011-06-01T21:18:00Z,27.5400,-82.7400,-0.523,1111122 
COMPS,ioos:station:USF.COMPS:ANM:1,2011-06-01T21:24:00Z,27.5400,-82.7400,-0.536,1111122 
COMPS,ioos:station:USF.COMPS:ANM:1,2011-06-01T21:30:00Z,27.5400,-82.7400,-0.545,1111122 
COMPS,ioos:station:USF.COMPS:ANM:1,2011-06-01T21:36:00Z,27.5400,-82.7400,-0.561,1111122 
COMPS,ioos:station:USF.COMPS:ANM:1,2011-06-01T21:42:00Z,27.5400,-82.7400,-0.568,1111122 
COMPS,ioos:station:USF.COMPS:ANM:1,2011-06-01T21:48:00Z,27.5400,-82.7400,-0.583,1111122 
COMPS,ioos:station:USF.COMPS:ANM:1,2011-06-01T21:54:00Z,27.5400,-82.7400,-0.59,1111122 
COMPS,ioos:station:USF.COMPS:ANM:1,2011-06-01T22:00:00Z,27.5400,-82.7400,-0.602,1111122 
COMPS,ioos:station:USF.COMPS:ANM:1,2011-06-01T22:06:00Z,27.5400,-82.7400,-0.615,1111122 
COMPS,ioos:station:USF.COMPS:ANM:1,2011-06-01T22:12:00Z,27.5400,-82.7400,-0.602,1111122 
COMPS,ioos:station:USF.COMPS:ANM:1,2011-06-01T22:18:00Z,27.5400,-82.7400,-0.565,1111122 
COMPS,ioos:station:USF.COMPS:ANM:1,2011-06-01T22:24:00Z,27.5400,-82.7400,-0.558,1111122 
COMPS,ioos:station:USF.COMPS:ANM:1,2011-06-01T22:30:00Z,27.5400,-82.7400,-0.579,1111122 
COMPS,ioos:station:USF.COMPS:ANM:1,2011-06-01T22:36:00Z,27.5400,-82.7400,-0.579,1111122 
COMPS,ioos:station:USF.COMPS:ANM:1,2011-06-01T22:42:00Z,27.5400,-82.7400,-0.57,1111122 
COMPS,ioos:station:USF.COMPS:ANM:1,2011-06-01T22:48:00Z,27.5400,-82.7400,-0.594,1111122 
COMPS,ioos:station:USF.COMPS:ANM:1,2011-06-01T22:54:00Z,27.5400,-82.7400,-0.647,1111122 
COMPS,ioos:station:USF.COMPS:ANM:1,2011-06-01T23:00:00Z,27.5400,-82.7400,-0.69,1111122 
COMPS,ioos:station:USF.COMPS:ANM:1,2011-06-01T23:06:00Z,27.5400,-82.7400,-0.684,1111122 
COMPS,ioos:station:USF.COMPS:ANM:1,2011-06-01T23:12:00Z,27.5400,-82.7400,-0.671,1111122 
COMPS,ioos:station:USF.COMPS:ANM:1,2011-06-01T23:18:00Z,27.5400,-82.7400,-0.674,1111122 
COMPS,ioos:station:USF.COMPS:ANM:1,2011-06-01T23:24:00Z,27.5400,-82.7400,-0.661,1111122 
COMPS,ioos:station:USF.COMPS:ANM:1,2011-06-01T23:30:00Z,27.5400,-82.7400,-0.66,1111122 
COMPS,ioos:station:USF.COMPS:ANM:1,2011-06-01T23:36:00Z,27.5400,-82.7400,-0.658,1111122 
COMPS,ioos:station:USF.COMPS:ANM:1,2011-06-01T23:42:00Z,27.5400,-82.7400,-0.647,1111122 
COMPS,ioos:station:USF.COMPS:ANM:1,2011-06-01T23:48:00Z,27.5400,-82.7400,-0.647,1111122 
COMPS,ioos:station:USF.COMPS:ANM:1,2011-06-01T23:54:00Z,27.5400,-82.7400,-0.649,1111122 
COMPS,ioos:station:USF.COMPS:ANM:1,2011-06-02T00:00:00Z,27.5400,-82.7400,-0.67,1111122 
COMPS,ioos:station:USF.COMPS:ANM:1,2011-06-02T00:06:00Z,27.5400,-82.7400,-0.655,1111122 
COMPS,ioos:station:USF.COMPS:ANM:1,2011-06-02T00:12:00Z,27.5400,-82.7400,-0.63,1111122 
COMPS,ioos:station:USF.COMPS:ANM:1,2011-06-02T00:18:00Z,27.5400,-82.7400,-0.634,1111122 
COMPS,ioos:station:USF.COMPS:ANM:1,2011-06-02T00:24:00Z,27.5400,-82.7400,-0.629,1111122 
COMPS,ioos:station:USF.COMPS:ANM:1,2011-06-02T00:30:00Z,27.5400,-82.7400,-0.618,1111122 
COMPS,ioos:station:USF.COMPS:ANM:1,2011-06-02T00:36:00Z,27.5400,-82.7400,-0.622,1111122 
COMPS,ioos:station:USF.COMPS:ANM:1,2011-06-02T00:42:00Z,27.5400,-82.7400,-0.609,1111122 
COMPS,ioos:station:USF.COMPS:ANM:1,2011-06-02T00:48:00Z,27.5400,-82.7400,-0.591,1111122 
COMPS,ioos:station:USF.COMPS:ANM:1,2011-06-02T00:54:00Z,27.5400,-82.7400,-0.582,1111122 
COMPS,ioos:station:USF.COMPS:ANM:1,2011-06-02T01:00:00Z,27.5400,-82.7400,-0.572,1111122 
COMPS,ioos:station:USF.COMPS:ANM:1,2011-06-02T01:06:00Z,27.5400,-82.7400,-0.572,1111122 
COMPS,ioos:station:USF.COMPS:ANM:1,2011-06-02T01:12:00Z,27.5400,-82.7400,-0.58,1111122 
COMPS,ioos:station:USF.COMPS:ANM:1,2011-06-02T01:18:00Z,27.5400,-82.7400,-0.547,1111122 
COMPS,ioos:station:USF.COMPS:ANM:1,2011-06-02T01:24:00Z,27.5400,-82.7400,-0.51,1111122 
COMPS,ioos:station:USF.COMPS:ANM:1,2011-06-02T01:30:00Z,27.5400,-82.7400,-0.492,1111122 
COMPS,ioos:station:USF.COMPS:ANM:1,2011-06-02T01:36:00Z,27.5400,-82.7400,-0.469,1111122 
COMPS,ioos:station:USF.COMPS:ANM:1,2011-06-02T01:42:00Z,27.5400,-82.7400,-0.455,1111122 
COMPS,ioos:station:USF.COMPS:ANM:1,2011-06-02T01:48:00Z,27.5400,-82.7400,-0.477,1111122 
COMPS,ioos:station:USF.COMPS:ANM:1,2011-06-02T01:54:00Z,27.5400,-82.7400,-0.457,1111122 
COMPS,ioos:station:USF.COMPS:ANM:1,2011-06-02T02:00:00Z,27.5400,-82.7400,-0.431,1111122 
COMPS,ioos:station:USF.COMPS:ANM:1,2011-06-02T02:06:00Z,27.5400,-82.7400,-0.403,1111122 
COMPS,ioos:station:USF.COMPS:ANM:1,2011-06-02T02:12:00Z,27.5400,-82.7400,-0.361,1111122 
COMPS,ioos:station:USF.COMPS:ANM:1,2011-06-02T02:18:00Z,27.5400,-82.7400,-0.343,1111122 
COMPS,ioos:station:USF.COMPS:ANM:1,2011-06-02T02:24:00Z,27.5400,-82.7400,-0.337,1111122 
COMPS,ioos:station:USF.COMPS:ANM:1,2011-06-02T02:30:00Z,27.5400,-82.7400,-0.33,1111122 
COMPS,ioos:station:USF.COMPS:ANM:1,2011-06-02T02:36:00Z,27.5400,-82.7400,-0.311,1111122 
COMPS,ioos:station:USF.COMPS:ANM:1,2011-06-02T02:42:00Z,27.5400,-82.7400,-0.291,1111122 
COMPS,ioos:station:USF.COMPS:ANM:1,2011-06-02T02:48:00Z,27.5400,-82.7400,-0.278,1111122 
COMPS,ioos:station:USF.COMPS:ANM:1,2011-06-02T02:54:00Z,27.5400,-82.7400,-0.28,1111122 
COMPS,ioos:station:USF.COMPS:ANM:1,2011-06-02T03:00:00Z,27.5400,-82.7400,-0.279,1111122 
COMPS,ioos:station:USF.COMPS:ANM:1,2011-06-02T03:06:00Z,27.5400,-82.7400,-0.266,1111122 
COMPS,ioos:station:USF.COMPS:ANM:1,2011-06-02T03:12:00Z,27.5400,-82.7400,-0.254,1111122 
COMPS,ioos:station:USF.COMPS:ANM:1,2011-06-02T03:18:00Z,27.5400,-82.7400,-0.25,1111122 
COMPS,ioos:station:USF.COMPS:ANM:1,2011-06-02T03:24:00Z,27.5400,-82.7400,-0.253,1111122 
COMPS,ioos:station:USF.COMPS:ANM:1,2011-06-02T03:30:00Z,27.5400,-82.7400,-0.233,1111122 
COMPS,ioos:station:USF.COMPS:ANM:1,2011-06-02T03:36:00Z,27.5400,-82.7400,-0.217,1111122 
COMPS,ioos:station:USF.COMPS:ANM:1,2011-06-02T03:42:00Z,27.5400,-82.7400,-0.224,1111122 
COMPS,ioos:station:USF.COMPS:ANM:1,2011-06-02T03:48:00Z,27.5400,-82.7400,-0.228,1111122 